Wetbulb
62.51 62.24 61.80 61.16 60.42 60.13 60.15 59.38 60.62 60.71 60.75 60.76 61.88 62.32 62.44 62.86 61.49 61.96 61.76 60.96 61.32 61.48 60.72 61.04 61.18 60.53 59.10 58.35 56.93 57.07 55.87 55.73
62.14 62.07 61.21 60.12 59.10 59.37 59.26 59.27 59.54 59.52 58.45 57.91 59.44 59.66 61.04 60.94 61.51 61.47 61.02 60.00 59.35 59.07 58.35 58.63 57.98 57.23 56.98 57.93 56.51 54.86 54.68 54.80
60.26 60.39 59.92 59.21 58.52 59.02 59.07 58.58 59.21 59.39 58.92 58.54 58.49 58.96 59.19 58.92 58.92 58.87 59.16 58.32 58.76 57.93 57.10 57.10 57.52 57.21 56.59 56.71 55.79 55.06 54.46 54.68
59.46 59.60 59.19 58.94 57.67 58.12 58.92 59.42 59.52 59.08 59.34 58.41 57.92 58.04 57.89 57.25 57.03 57.10 57.77 58.04 58.20 58.12 57.89 57.15 57.85 57.42 56.90 57.40 56.84 55.72 53.98 54.65
59.75 59.64 58.43 58.21 57.59 58.76 58.95 59.71 59.85 58.93 59.63 58.28 57.07 55.99 54.98 55.92 56.30 56.58 57.36 57.52 58.14 58.54 59.10 58.89 58.17 58.53 57.98 57.85 58.35 57.09 56.77 53.72
59.40 59.33 59.40 58.89 59.18 59.44 58.90 59.35 59.57 59.46 59.20 58.93 57.53 56.43 56.33 55.79 55.03 55.01 56.50 57.24 57.51 58.29 59.00 58.91 58.74 58.64 58.62 58.69 58.08 57.60 57.78 57.76
60.06 60.40 60.14 59.16 59.45 58.76 59.31 58.44 58.72 59.48 59.81 58.68 57.90 56.73 55.83 54.96 54.48 53.83 54.91 56.34 57.19 57.68 58.25 58.85 58.91 58.43 58.75 58.85 58.75 58.59 58.56 58.46
59.36 59.02 58.49 59.02 58.32 58.08 58.54 58.39 57.31 58.90 59.08 59.39 58.65 57.41 56.80 55.72 55.39 54.99 55.29 55.13 55.53 56.01 55.84 56.07 57.92 58.72 58.69 58.87 58.95 58.94 58.81 58.06
59.38 59.42 58.46 59.26 58.47 58.04 57.89 58.25 57.38 58.11 59.14 58.90 58.87 57.97 57.23 57.06 56.71 56.32 56.28 55.42 54.99 55.92 56.43 56.81 58.57 58.76 59.42 59.97 59.43 59.36 59.29 59.21
59.32 60.06 59.07 58.82 58.82 58.34 58.54 58.35 58.13 57.53 58.73 59.21 58.82 58.44 58.03 57.34 57.19 56.81 56.86 56.68 56.80 56.37 56.48 56.80 57.72 58.60 59.38 59.29 59.20 58.68 59.27 58.79
59.28 60.07 59.98 59.49 59.51 59.17 59.32 59.02 58.46 58.18 57.93 58.95 58.82 58.21 57.97 57.76 57.27 56.81 56.87 56.83 57.16 56.83 56.83 56.85 57.04 57.12 59.31 59.10 58.60 58.86 58.52 58.07
59.11 60.00 60.85 60.22 59.95 59.61 59.67 59.31 58.95 58.47 58.66 58.63 58.84 58.29 57.76 57.82 57.82 58.02 58.20 57.14 56.95 56.75 56.69 56.72 57.29 57.82 57.93 58.40 58.20 58.65 58.22 58.07
59.18 59.95 61.06 60.72 59.54 59.41 59.07 59.19 58.93 59.36 59.66 59.09 58.72 58.84 58.65 58.25 58.22 58.52 58.89 58.73 58.37 57.23 57.53 58.41 58.08 57.97 58.83 58.43 58.10 58.29 57.95 57.21
59.25 59.67 60.41 60.91 60.51 59.62 59.31 59.20 59.20 59.91 59.63 59.51 59.07 59.05 58.72 58.67 59.26 58.92 59.54 59.22 59.20 59.11 58.50 58.56 58.88 58.83 58.64 58.40 58.20 57.87 57.78 57.97
58.40 59.18 59.79 60.95 61.34 60.73 59.93 59.29 59.59 59.63 59.87 59.35 58.92 59.23 59.14 58.73 59.47 59.50 59.50 59.76 59.35 59.30 59.49 59.32 58.95 58.85 58.79 58.66 58.50 57.84 57.95 57.97
54.95 57.17 58.80 60.21 61.18 61.43 60.93 60.00 59.68 59.74 58.94 59.16 59.38 59.77 60.27 60.26 59.70 59.71 59.84 59.82 59.25 59.35 58.75 58.59 58.93 58.82 56.99 54.76 57.40 56.74 54.94 44.33
53.02 55.10 57.90 59.51 60.38 61.26 61.44 60.88 59.94 59.42 58.73 58.43 59.76 60.05 60.09 59.81 59.82 59.73 59.55 59.47 59.47 59.55 59.19 57.63 53.39 45.80 39.09 41.16 47.16 44.02 41.45 38.13
52.66 54.84 56.76 59.10 60.61 61.66 61.28 61.45 61.37 59.68 58.95 59.16 59.41 59.93 59.56 59.41 59.77 59.56 59.06 58.65 57.78 53.65 45.70 42.50 39.48 38.16 37.49 37.54 36.98 36.77 35.58 34.61
55.10 55.99 56.17 57.07 58.38 61.32 61.99 62.42 61.97 60.75 59.70 59.65 59.60 59.24 58.87 59.02 58.74 57.99 51.83 47.05 43.23 39.86 37.69 36.74 35.55 35.28 35.46 34.95 34.07 32.84 31.62 31.25
MSLP
1000.69 1002.30 1003.62 1004.97 1006.40 1007.21 1007.87 1008.38 1008.35 1008.58 1008.61 1008.80 1009.14 1009.43 1010.03 1010.48 1011.14 1011.65 1012.54 1012.94 1013.07 1013.46 1014.24 1014.53 1015.19 1015.85 1016.82 1017.57 1018.15 1018.63 1019.08 1019.53
1000.71 1002.32 1003.84 1005.13 1006.63 1007.26 1007.83 1008.17 1008.61 1008.70 1008.69 1008.81 1008.75 1009.06 1009.51 1010.24 1010.96 1011.60 1012.66 1013.09 1013.45 1013.82 1014.46 1015.31 1015.49 1016.13 1017.12 1017.77 1018.25 1018.88 1019.40 1019.51
1000.78 1002.48 1003.96 1005.05 1006.41 1007.04 1007.69 1008.02 1008.33 1008.71 1008.77 1008.92 1008.84 1009.18 1009.47 1010.16 1011.00 1011.63 1012.56 1013.24 1013.49 1014.08 1014.66 1015.64 1016.10 1016.73 1017.54 1018.14 1018.51 1018.95 1019.50 1019.70
1000.15 1002.07 1003.68 1004.83 1006.10 1006.81 1007.31 1007.67 1007.98 1008.52 1008.82 1009.00 1009.20 1009.68 1010.16 1010.79 1011.49 1012.24 1012.93 1013.46 1013.70 1014.33 1015.26 1016.00 1016.67 1017.29 1017.77 1018.24 1018.65 1019.08 1019.57 1020.21
999.28 1001.23 1003.12 1004.44 1005.72 1006.48 1006.89 1007.28 1007.62 1008.36 1008.75 1009.06 1009.42 1009.75 1010.25 1010.76 1011.54 1012.55 1013.22 1013.76 1014.31 1014.96 1015.80 1016.36 1016.72 1017.38 1018.00 1018.24 1018.65 1018.79 1019.07 1019.87
998.47 1000.35 1002.09 1003.72 1005.03 1005.90 1006.42 1007.02 1007.38 1007.92 1008.50 1009.00 1009.50 1010.04 1010.63 1011.36 1012.16 1012.65 1013.31 1014.42 1015.10 1015.65 1016.04 1016.27 1016.92 1017.37 1017.66 1018.04 1018.30 1018.63 1018.83 1019.23
997.79 999.67 1001.34 1003.00 1004.27 1005.46 1006.02 1006.65 1007.18 1007.59 1007.93 1008.69 1009.25 1009.80 1010.48 1011.18 1012.05 1012.88 1013.75 1014.55 1015.09 1015.38 1015.70 1016.24 1016.36 1016.87 1017.61 1017.32 1018.20 1018.49 1018.74 1018.39
997.29 999.02 1000.53 1002.05 1003.67 1004.85 1005.75 1006.27 1006.83 1007.37 1007.65 1008.20 1008.72 1009.54 1010.34 1010.93 1011.61 1012.46 1013.17 1013.96 1014.39 1014.73 1015.06 1015.53 1016.29 1016.63 1016.78 1017.11 1017.80 1017.76 1018.07 1018.16
996.81 998.38 999.77 1001.20 1002.91 1004.21 1005.01 1005.82 1006.37 1006.99 1007.40 1007.95 1008.60 1009.19 1009.89 1010.63 1011.32 1012.02 1012.73 1013.22 1013.66 1014.21 1014.69 1015.16 1015.55 1016.06 1016.83 1016.57 1016.70 1017.04 1017.52 1017.91
996.39 997.84 999.20 1000.40 1001.95 1003.34 1004.37 1005.13 1005.88 1006.55 1007.09 1007.59 1008.15 1008.87 1009.52 1010.08 1011.00 1011.74 1012.39 1012.90 1013.35 1013.85 1014.26 1014.87 1015.26 1015.56 1016.00 1015.87 1016.22 1016.71 1017.01 1017.27
995.80 997.06 998.48 999.77 1001.11 1002.57 1003.65 1004.20 1004.96 1005.88 1006.70 1007.18 1007.72 1008.34 1009.07 1009.65 1010.31 1010.93 1011.71 1012.29 1012.83 1013.51 1014.02 1014.47 1014.86 1015.27 1015.28 1015.40 1015.73 1016.21 1016.45 1016.61
994.91 996.19 997.46 998.94 1000.35 1001.58 1002.87 1003.58 1004.08 1004.89 1005.83 1006.71 1007.27 1007.97 1008.62 1009.12 1009.57 1010.14 1010.64 1011.42 1012.06 1012.60 1013.23 1013.79 1014.15 1014.35 1014.59 1014.92 1015.22 1015.50 1015.76 1015.83
994.31 995.56 996.78 998.04 999.53 1000.66 1001.77 1002.71 1003.24 1004.01 1004.88 1005.75 1006.70 1007.49 1008.08 1008.51 1008.89 1009.31 1009.85 1010.33 1010.93 1011.51 1012.11 1012.54 1013.05 1013.41 1013.79 1014.26 1014.57 1014.71 1015.05 1015.25
994.14 994.99 996.02 997.10 998.50 999.76 1000.91 1001.86 1002.50 1003.16 1004.06 1004.82 1005.63 1006.51 1007.18 1007.90 1008.30 1008.67 1009.05 1009.45 1009.90 1010.42 1010.99 1011.48 1011.98 1012.56 1013.08 1013.37 1013.61 1013.95 1014.18 1014.29
994.05 994.58 995.15 996.11 997.28 998.62 999.90 1001.08 1001.95 1002.52 1003.21 1003.97 1004.65 1005.19 1006.08 1006.75 1007.35 1007.90 1008.37 1008.85 1009.40 1009.92 1010.37 1010.88 1011.34 1011.82 1012.17 1012.53 1012.80 1013.08 1013.44 1013.70
994.20 994.30 994.73 995.31 996.34 997.46 998.72 999.94 1001.01 1001.76 1002.30 1002.92 1003.55 1004.35 1004.89 1005.74 1006.49 1007.00 1007.49 1008.06 1008.76 1009.45 1010.04 1010.53 1010.97 1011.45 1011.90 1012.28 1012.28 1012.70 1013.36 1014.67
994.71 994.22 994.22 994.67 995.41 996.43 997.57 998.65 999.85 1000.84 1001.50 1002.04 1002.81 1003.69 1004.28 1004.76 1005.49 1006.29 1007.06 1007.71 1008.30 1008.91 1009.52 1010.13 1010.95 1012.53 1012.81 1012.50 1012.73 1013.87 1014.78 1015.67
995.12 994.80 994.21 994.37 994.77 995.51 996.49 997.43 998.57 999.71 1000.59 1001.24 1002.04 1002.81 1003.72 1004.56 1005.39 1006.03 1006.70 1007.26 1007.99 1009.19 1010.55 1011.51 1012.61 1013.37 1013.46 1013.50 1013.81 1014.89 1015.70 1016.64
996.72 995.88 995.07 994.58 994.47 994.66 995.34 996.23 997.34 998.76 999.90 1000.63 1001.48 1002.32 1003.38 1004.29 1005.23 1006.22 1007.34 1008.13 1009.37 1010.69 1012.03 1013.00 1013.68 1014.54 1014.71 1014.68 1014.94 1015.80 1016.63 1017.46
Wind_Speed
14 10 9 13 8 7 8 5 4 5 2 3 6 8 9 8 10 10 11 4 6 5 6 8 4 7 5 5 5 4 4 5
14 9 9 11 9 9 9 6 8 3 3 1 3 6 9 8 12 18 12 6 5 9 6 7 5 7 6 5 4 5 4 4
14 12 10 10 10 9 10 9 9 3 4 2 2 6 7 10 10 13 12 7 7 9 9 5 6 6 6 5 4 4 3 4
15 15 10 11 10 10 9 11 12 6 9 6 7 9 8 10 11 10 9 10 8 9 8 7 6 5 5 5 6 6 5 3
17 15 13 12 11 10 10 9 12 10 10 9 12 10 10 9 11 9 9 8 7 7 7 5 7 5 6 6 6 5 5 4
19 16 15 13 13 12 10 11 10 14 10 10 8 10 9 10 8 11 11 8 7 11 7 5 5 5 5 6 6 4 4 4
18 16 15 15 13 12 12 12 12 11 13 14 12 12 14 11 12 12 10 10 9 11 12 10 8 6 7 6 8 10 7 4
17 18 16 16 16 14 12 14 12 11 11 14 13 14 14 16 16 13 14 11 9 12 12 8 7 7 7 9 13 8 6 5
16 18 16 16 17 15 14 14 14 13 12 13 12 15 10 11 14 12 10 11 11 13 13 13 8 11 14 13 5 5 5 5
16 18 16 16 17 17 15 16 13 14 12 12 13 13 14 13 17 13 11 10 9 10 10 11 6 10 14 7 5 7 6 10
15 16 17 15 17 16 16 16 17 16 15 12 12 14 12 12 12 15 15 13 13 12 12 14 13 13 9 9 9 8 9 7
15 14 17 16 16 17 16 16 16 18 17 15 14 13 15 12 12 14 15 16 16 15 16 16 16 15 14 11 11 10 11 9
12 14 17 16 17 16 17 15 15 16 17 17 15 15 15 15 15 14 15 16 17 19 17 17 18 16 13 12 11 10 11 11
8 13 16 16 16 16 17 16 15 15 17 16 17 16 16 16 16 16 17 16 15 15 16 14 14 12 13 12 12 12 12 12
5 8 11 16 16 16 16 16 14 14 16 17 17 17 17 17 15 13 11 9 10 12 13 13 11 10 11 12 13 12 12 12
6 6 7 8 15 15 15 16 16 14 14 16 17 17 16 16 16 16 14 13 12 10 9 10 9 10 6 5 7 4 3 11
15 8 6 11 9 14 15 15 17 16 15 15 14 14 15 15 14 14 13 13 12 12 12 6 7 7 7 8 10 9 11 11
15 11 6 5 10 12 15 15 16 17 17 15 15 15 15 14 11 12 12 11 7 9 11 11 11 9 14 18 19 12 12 11
19 16 14 5 4 11 13 15 15 17 16 15 13 12 13 11 11 9 8 11 12 11 11 12 12 10 17 21 22 15 14 14
Wind_Direction
150 167 112 115 121 139 134 158 163 122 146 203 204 181 177 165 165 156 164 163 148 145 111 104 105 111 104 111 120 115 146 158
127 133 133 121 141 142 157 148 133 148 121 116 173 164 172 152 170 159 154 148 105 101 91 101 108 94 105 116 106 116 64 63
141 140 155 146 162 159 155 163 142 151 115 60 101 125 129 122 125 129 129 125 102 114 111 92 83 103 112 112 105 97 74 91
153 155 171 155 165 165 172 172 144 128 118 105 98 103 115 125 120 119 113 110 98 102 106 124 113 120 129 128 136 145 149 227
152 161 171 168 169 173 175 171 147 141 145 137 136 137 139 135 138 127 118 107 97 114 128 144 130 146 163 175 187 181 140 160
155 168 165 173 169 172 169 171 160 152 157 152 145 143 135 142 139 133 128 139 164 166 152 139 171 185 174 195 169 194 202 177
151 163 158 165 161 172 169 172 167 168 156 154 161 150 148 146 153 157 164 172 178 167 170 190 185 184 199 178 209 203 210 173
154 165 164 165 164 178 172 176 176 175 173 162 161 156 160 163 161 169 170 179 185 184 189 205 187 200 210 203 220 204 202 189
165 168 167 164 161 179 184 178 178 176 183 167 167 166 170 170 173 174 178 183 184 184 190 202 192 194 223 210 183 182 195 206
176 166 169 166 165 176 187 175 181 182 186 173 171 166 181 176 176 178 182 178 178 188 195 205 206 217 222 210 191 205 212 225
177 169 168 169 166 174 184 184 180 177 187 184 181 176 174 172 178 184 183 187 185 182 193 209 219 228 218 211 217 217 219 223
172 178 166 169 166 173 183 185 186 177 180 186 188 184 188 186 184 193 197 196 193 195 196 207 213 219 219 218 225 222 226 220
166 180 165 168 169 173 178 192 192 180 181 178 187 190 189 196 199 198 202 194 199 203 212 202 208 216 217 216 222 222 224 229
172 178 168 172 173 175 181 190 196 182 182 182 180 191 186 199 203 199 194 201 198 202 205 214 208 211 214 217 222 227 230 235
187 200 188 176 176 180 180 184 192 193 180 184 187 187 190 194 198 196 205 197 194 195 200 208 211 214 219 224 228 230 235 238
297 201 198 190 180 179 180 180 186 193 194 190 190 190 189 188 195 199 198 194 202 206 208 216 220 221 238 291 243 247 44 79
308 292 233 187 189 181 181 181 184 186 200 197 191 188 192 193 189 191 195 199 201 196 204 216 87 64 18 58 84 78 73 81
290 324 230 199 189 182 186 189 177 187 195 194 197 185 190 190 191 190 190 189 161 116 78 83 80 75 79 86 89 86 84 84
353 344 335 328 254 187 189 180 181 182 190 195 189 186 186 183 180 179 84 85 90 92 84 82 85 73 84 90 92 92 85 79